Wind_Gust
13 13 12 14 13 16 18 18 17 20 18 20 20 20 19 19 19 18 18 19 19 20 21 21 21 21 20 20 20 19 18 18 17 16 15 14 14 12 14 14 13 13 12 11 9 10 9 8 10 11 7 8 8 10 10 10 11 13 13 14 15 14 15 16 20 21 18 15 17 19 18 18 22 19 21 18 15 16 14 16 18 18 20 21 21
11 13 13 14 14 14 18 18 20 20 19 21 22 21 20 20 18 19 18 20 20 21 23 21 21 22 21 22 21 20 20 20 19 17 18 16 15 13 14 14 14 13 12 13 13 10 8 9 8 8 8 9 8 13 12 13 14 15 14 14 16 15 14 18 19 20 21 16 18 17 18 16 22 18 19 18 17 17 21 20 20 20 21 21 22
13 12 11 10 12 14 17 18 18 19 21 22 23 24 21 20 20 20 21 20 20 22 22 22 22 23 23 22 22 22 22 21 20 19 18 18 18 16 15 15 15 14 14 14 14 14 11 10 10 9 9 9 9 10 10 13 13 15 14 15 17 17 18 18 20 21 21 22 18 21 19 18 17 19 19 20 19 20 22 21 22 21 21 19 21
11 11 13 17 14 12 18 18 18 18 17 20 22 22 23 23 23 22 21 21 22 21 21 22 22 23 25 25 24 24 24 22 22 21 21 20 20 19 18 16 16 16 15 15 14 12 11 10 10 10 9 10 10 10 12 11 12 14 15 15 15 16 16 16 17 20 21 24 19 21 20 19 20 20 20 20 21 21 21 21 20 22 22 22 20
9 13 14 13 14 15 12 12 13 15 13 15 18 20 20 21 21 21 21 22 22 22 23 23 25 26 26 26 26 25 24 24 23 22 20 19 20 19 18 18 16 16 15 13 8 10 11 10 10 9 9 11 11 12 12 11 14 14 15 17 17 16 16 16 18 19 21 23 23 21 21 23 23 21 20 23 22 22 21 21 20 20 19 19 20
9 8 10 11 11 13 15 15 17 16 17 17 18 17 17 18 20 20 20 21 21 21 23 25 26 27 26 26 25 25 24 23 23 23 22 20 20 19 18 17 16 16 14 13 13 13 11 11 10 11 11 11 12 12 13 13 14 14 15 17 19 18 18 19 20 21 22 24 23 25 20 23 23 21 19 20 22 23 22 21 20 20 20 19 20
10 9 9 8 8 12 15 17 15 15 15 16 17 19 20 19 19 20 20 21 23 23 24 26 25 27 27 25 26 25 24 23 22 22 21 21 20 19 18 16 16 14 14 14 13 12 12 12 10 10 12 12 12 12 12 12 13 14 15 15 17 16 18 19 20 21 22 23 23 22 24 22 22 24 21 19 21 22 21 20 21 20 19 20 21
10 9 8 7 8 8 8 8 10 13 14 15 16 18 19 17 20 21 20 21 23 24 25 25 24 21 22 24 24 24 24 24 24 23 22 21 19 19 18 16 16 15 13 13 12 11 11 12 12 12 12 13 11 11 12 15 15 15 15 16 17 18 19 20 20 22 22 22 22 22 21 22 21 21 23 19 20 21 21 21 21 19 18 17 17
10 10 9 8 8 9 9 9 11 11 14 16 16 17 19 22 23 23 23 22 19 21 20 19 14 17 21 25 24 25 25 25 25 22 21 20 19 18 17 17 15 14 14 13 12 12 12 12 12 13 10 9 7 3 6 7 16 18 17 16 17 19 19 20 21 21 22 23 23 22 22 22 21 20 20 19 19 20 18 16 20 19 20 21 22
11 10 11 9 9 11 11 10 13 13 13 14 15 16 18 19 20 20 21 20 20 19 20 14 14 19 23 23 25 21 14 14 8 9 10 21 20 21 19 16 14 13 12 12 11 12 12 12 12 6 4 7 9 11 12 12 12 16 19 16 18 19 19 20 21 22 22 23 24 23 23 23 22 19 20 19 19 18 19 20 23 22 22 23 22
11 11 12 12 12 12 12 12 12 14 13 14 14 15 16 15 16 17 18 19 19 18 16 19 19 23 26 26 18 12 10 11 14 16 13 8 17 17 16 14 13 12 11 11 11 11 12 13 13 9 12 13 20 17 15 14 15 16 16 15 14 20 20 22 22 21 24 25 24 24 24 24 22 21 20 21 20 20 20 20 21 21 22 23 25
12 12 13 13 13 13 13 13 14 13 13 15 15 15 15 16 17 18 17 17 18 17 20 21 24 23 23 25 17 16 15 11 15 17 16 14 8 15 13 12 12 11 11 11 12 12 12 12 13 13 14 15 16 15 16 18 17 17 18 18 17 18 16 22 23 24 22 25 25 24 24 24 23 21 22 20 21 20 19 19 19 20 22 23 23
13 13 14 15 14 13 13 14 15 14 14 15 14 14 15 16 17 18 18 16 16 19 20 19 20 21 22 23 20 17 18 8 16 17 16 15 9 6 12 11 11 11 9 10 12 12 13 14 15 14 16 5 13 18 19 17 17 22 20 19 20 20 20 23 22 27 24 27 27 28 27 26 26 24 21 22 22 22 21 23 22 23 24 25 25
14 14 14 15 15 14 15 15 15 15 15 15 15 16 16 17 16 16 16 17 18 18 18 19 18 18 21 22 17 18 19 12 15 15 15 13 9 4 9 10 7 8 10 11 11 12 13 15 15 15 15 15 16 17 17 17 17 15 16 19 21 22 25 26 24 26 27 29 26 29 25 24 29 24 23 22 24 25 26 26 23 24 24 26 23
16 16 16 16 16 15 16 16 16 16 15 15 15 16 16 16 17 17 17 17 17 18 17 19 19 16 19 18 19 20 18 13 15 15 14 11 6 3 8 8 8 9 10 12 13 14 14 15 15 15 16 16 15 11 14 17 17 18 19 20 21 21 20 19 24 27 27 27 29 29 28 27 28 27 26 25 22 21 19 22 23 24 28 27 27
17 16 16 16 17 16 17 16 16 16 17 16 16 16 16 16 17 16 17 17 17 16 17 17 17 18 16 20 21 23 18 12 14 13 11 9 4 6 9 7 9 11 12 13 14 15 14 14 14 15 15 16 9 8 9 14 18 21 22 21 22 22 22 15 14 15 23 26 25 25 24 21 14 20 21 23 24 23 23 25 24 25 28 29 30
17 17 17 17 17 17 17 17 16 17 17 17 17 17 17 17 16 17 17 17 17 17 17 16 15 15 18 19 23 22 19 12 12 11 8 7 4 8 8 11 12 13 13 13 14 15 14 14 14 14 16 18 10 12 9 2 16 21 23 23 23 23 24 22 15 16 17 19 21 22 22 21 20 20 18 16 18 19 26 29 29 24 28 31 30
19 19 19 18 18 17 17 17 17 17 17 18 18 16 16 17 16 16 18 17 17 12 9 10 14 17 19 21 23 22 19 12 10 9 8 7 5 8 8 11 11 11 14 13 14 14 14 4 8 18 19 18 8 11 10 10 19 22 24 25 26 25 25 24 24 22 15 16 18 21 24 23 22 21 21 19 18 14 25 33 28 27 34 31 34
20 20 19 19 19 19 19 19 18 19 19 19 18 18 17 16 16 16 16 13 12 14 17 17 17 16 18 19 15 19 18 13 9 9 6 4 6 9 9 11 12 13 13 14 13 14 15 11 14 16 16 14 9 7 8 9 20 21 24 27 29 29 27 26 27 27 27 26 25 22 22 20 25 28 28 20 19 18 27 29 26 32 38 34 33
21 20 20 20 19 19 18 18 19 19 20 19 19 18 16 16 16 13 11 13 17 17 17 18 17 18 19 18 17 17 17 14 12 8 6 4 4 11 10 11 12 12 13 15 15 16 17 18 15 16 10 10 6 5 4 3 15 20 24 29 29 30 26 26 25 26 26 27 27 26 28 27 27 25 26 27 26 26 27 28 29 34 39 39 35
21 21 20 20 20 20 20 19 20 20 19 19 18 19 19 16 13 15 15 15 19 18 18 17 18 18 17 17 18 16 16 16 14 11 7 5 3 5 10 11 12 13 15 17 17 18 18 16 16 17 12 8 6 4 5 6 7 19 24 30 30 27 21 27 30 21 30 28 29 30 30 28 28 28 28 28 28 27 26 25 26 29 32 34 37
20 20 21 22 22 21 21 21 20 21 21 21 21 20 18 15 16 17 15 18 20 21 18 18 19 18 16 16 15 15 13 11 15 12 10 8 6 6 10 10 13 15 17 18 18 17 17 16 16 16 12 9 10 9 9 10 12 23 29 21 22 21 32 32 33 30 29 28 28 28 27 26 27 27 28 27 27 27 27 28 27 28 30 29 31
21 22 22 22 22 22 22 21 22 22 22 22 19 21 16 15 15 18 19 20 22 21 20 20 20 19 16 15 13 13 13 11 10 12 11 11 9 7 5 9 3 13 15 17 17 18 17 17 13 10 19 17 17 18 19 20 18 24 18 17 18 18 19 29 29 29 28 27 28 28 27 28 28 28 27 28 27 26 27 27 27 28 26 28 29
21 22 22 22 23 24 23 23 23 23 22 20 19 15 14 16 17 18 20 22 23 22 20 20 19 18 16 14 13 14 14 13 8 12 13 13 11 9 9 9 8 12 14 17 17 17 17 16 16 16 18 19 18 18 18 18 25 20 21 22 22 20 24 26 27 28 27 27 27 28 28 28 29 29 28 27 27 25 26 25 26 26 29 31 29
22 23 24 25 24 25 25 24 22 20 20 17 16 17 16 18 20 19 20 20 20 20 19 18 18 17 16 16 16 16 18 17 15 14 14 13 13 13 13 12 12 11 15 16 16 17 12 12 14 14 13 15 18 19 18 19 22 24 23 22 20 22 25 25 25 24 26 26 27 28 28 27 29 28 27 27 26 25 25 25 25 26 27 28 28
22 24 26 26 27 27 25 23 22 19 13 13 15 18 20 21 22 23 21 20 19 19 19 20 19 19 19 18 16 15 15 15 16 16 12 12 11 13 14 15 13 14 17 18 14 18 20 19 18 18 18 19 21 20 22 24 15 17 18 19 22 24 23 24 24 25 26 26 26 27 28 27 26 26 25 25 26 26 25 27 27 27 26 26 28
23 24 26 27 26 25 23 20 14 12 11 8 14 15 19 19 19 19 20 21 20 19 19 19 20 20 19 18 17 16 14 11 9 10 11 11 11 10 17 16 15 16 20 17 12 15 17 16 19 18 21 22 24 21 22 21 23 22 20 20 20 21 21 22 24 25 26 28 27 27 26 26 25 24 25 24 26 25 24 26 26 26 24 25 27
24 24 23 23 23 21 18 7 10 15 16 14 16 15 14 14 13 11 12 14 18 19 20 19 18 19 19 18 18 17 15 13 12 10 11 12 12 13 13 14 16 18 18 20 22 22 23 12 16 19 18 18 20 19 19 20 20 21 22 21 22 22 20 16 17 27 28 28 28 26 26 25 26 26 25 25 26 24 23 25 25 26 22 22 22
21 21 20 18 16 7 9 13 14 16 16 14 13 11 12 18 17 13 11 14 15 18 19 19 17 16 17 16 15 15 14 13 11 6 11 6 8 14 15 17 19 18 14 13 22 21 19 19 16 19 18 17 18 19 21 20 18 21 21 22 22 22 23 23 24 23 23 22 21 17 17 23 25 24 25 26 24 24 24 24 20 22 20 19 19
18 17 14 12 11 12 11 15 16 15 17 16 20 20 20 21 15 14 14 18 21 17 10 15 17 17 17 16 13 11 11 13 7 5 2 2 1 5 6 8 8 14 13 15 15 18 17 18 18 19 19 19 20 19 20 19 20 21 20 16 22 23 23 23 23 23 21 20 22 19 19 17 18 20 22 22 22 20 20 15 19 15 17 19 21
13 11 13 14 10 10 14 25 25 25 21 19 20 19 19 20 20 21 18 17 17 18 18 19 17 12 14 15 16 17 14 10 6 4 3 3 3 5 6 7 8 11 13 14 15 15 17 20 20 19 19 19 19 20 20 20 21 22 21 21 21 22 21 24 22 18 16 19 20 20 20 19 19 19 21 21 20 19 19 17 17 16 19 20 22
11 12 11 11 12 10 14 18 18 20 20 20 20 18 18 20 21 18 19 17 16 16 16 16 16 14 13 12 11 14 7 5 5 4 3 3 7 7 9 11 12 11 14 9 15 17 20 21 21 21 20 19 19 19 21 21 22 22 23 23 22 21 22 22 20 23 22 22 22 20 22 21 22 20 19 20 20 21 20 19 20 20 20 21 22
14 13 13 13 12 12 12 12 15 19 19 20 18 18 17 17 18 16 15 13 15 14 14 13 12 12 11 9 7 8 7 7 6 2 4 7 8 11 13 14 13 14 12 14 14 18 20 20 20 20 20 20 20 20 20 22 22 23 22 23 24 24 24 23 19 23 19 20 20 22 21 22 20 20 19 19 19 24 21 21 22 21 21 22 25
16 13 14 12 10 11 14 17 16 17 18 17 16 16 15 15 16 16 15 13 13 10 7 7 7 10 9 8 9 9 8 6 4 4 7 10 13 15 12 13 12 13 12 12 15 20 20 21 20 22 22 20 20 20 20 21 23 22 23 23 24 24 25 24 22 20 22 23 22 22 21 20 20 24 25 25 23 22 23 21 21 21 26 28 27
14 9 7 6 12 13 13 15 17 19 18 18 18 16 15 14 16 17 16 14 12 13 12 12 6 4 8 6 4 5 4 3 2 6 12 14 16 14 12 18 15 11 14 14 20 21 20 21 21 21 22 21 20 19 21 21 22 23 24 25 24 23 22 20 21 21 23 23 22 20 19 20 20 20 23 25 24 24 24 22 22 21 21 21 22
10 10 8 8 12 12 12 12 14 16 16 16 18 17 16 15 16 15 14 14 13 13 11 11 11 6 4 3 6 6 5 5 8 11 15 15 15 11 16 18 18 17 16 18 19 21 21 21 23 23 22 22 20 20 21 23 23 25 24 25 27 25 25 25 23 21 17 21 22 22 22 22 22 23 22 23 22 25 23 22 21 18 17 19 17
11 11 13 14 16 16 16 15 14 15 10 12 16 17 15 14 15 16 16 16 13 12 13 14 14 12 7 12 10 7 11 11 12 13 15 17 12 11 15 16 16 17 19 18 18 19 20 20 20 21 20 21 21 22 22 24 25 26 21 26 26 27 26 23 24 21 24 26 24 23 21 23 21 19 20 22 22 22 21 21 20 18 17 17 13
12 11 10 10 11 12 13 16 15 3 12 16 18 17 16 16 16 15 13 13 12 12 12 17 8 11 14 13 12 12 17 15 13 9 12 15 18 14 14 15 14 16 18 19 19 19 20 21 20 21 21 22 22 23 24 24 26 27 27 26 27 25 20 25 20 21 19 22 23 22 21 21 20 19 17 19 19 18 17 16 16 19 16 16 17
8 5 5 5 4 14 15 11 10 11 13 13 15 12 12 10 7 6 7 8 5 4 4 9 11 9 11 9 9 12 17 17 19 20 17 11 10 11 12 15 15 16 17 18 18 18 20 21 21 20 21 22 23 23 24 25 25 26 26 27 27 25 26 26 26 23 22 21 21 22 22 21 20 20 19 18 17 14 14 12 13 14 16 16 17
8 9 8 5 8 10 13 9 7 8 9 10 11 10 10 7 7 6 4 4 5 6 6 6 11 15 11 11 11 13 12 16 13 11 10 8 9 10 12 15 15 16 17 18 18 18 19 20 21 21 21 21 22 23 23 25 25 26 26 27 27 28 26 25 24 24 24 24 23 22 22 21 20 19 18 16 15 12 13 13 13 12 11 9 10
8 9 7 8 6 13 13 14 13 13 11 12 10 10 7 6 6 4 4 3 2 3 3 12 18 15 12 12 5 7 11 13 10 10 10 10 9 9 12 14 14 15 15 17 18 18 20 20 21 21 21 22 23 24 25 24 25 26 27 27 27 27 27 24 21 23 23 23 23 24 21 20 18 19 19 15 9 11 12 12 12 11 12 11 10
8 9 9 10 8 14 17 16 14 15 15 9 7 7 9 8 8 8 8 6 6 6 5 8 15 14 10 3 3 6 12 11 11 11 9 9 9 11 13 13 14 14 16 17 18 19 19 20 21 21 22 23 24 24 24 24 24 25 25 27 28 27 26 26 24 23 23 23 22 19 19 17 20 20 19 11 13 12 11 11 11 11 12 14 13
9 9 9 10 12 15 18 16 15 12 7 9 10 8 10 11 10 10 10 11 11 11 8 8 9 11 12 3 6 7 14 7 5 8 8 10 11 12 12 14 14 14 14 15 17 18 19 19 20 21 22 23 24 25 26 25 22 23 25 26 28 28 27 25 24 24 22 22 22 19 18 19 19 18 17 14 12 12 11 10 9 10 10 11 11
11 10 9 10 12 12 11 12 13 14 13 12 12 14 13 13 13 12 11 9 9 9 9 9 8 8 6 10 8 9 9 9 9 11 9 9 11 12 13 14 15 16 16 16 17 17 18 19 19 21 20 22 23 20 25 24 22 20 22 26 26 26 26 24 24 23 22 22 21 20 19 17 17 17 16 15 10 10 10 10 10 10 10 10 11
13 11 9 11 12 13 14 14 14 12 13 11 10 12 14 15 13 11 10 10 12 10 9 8 8 8 10 9 9 7 8 10 9 8 10 11 11 12 14 14 15 15 16 16 16 17 17 19 18 19 21 22 22 23 25 24 22 22 18 21 24 25 26 25 24 23 22 19 19 19 18 16 16 15 14 14 8 8 10 9 9 7 9 11 12
14 12 11 12 13 13 13 14 13 14 11 11 11 12 13 15 15 14 12 12 11 10 8 8 6 7 7 9 10 15 12 11 11 11 13 11 12 13 14 15 16 16 16 17 16 15 17 18 18 20 21 21 23 25 26 24 23 21 21 21 22 22 23 23 21 20 18 17 18 18 18 16 15 11 10 13 11 5 6 6 7 8 8 9 10
13 10 11 11 14 14 14 14 14 14 15 13 13 12 12 14 14 14 14 13 12 11 7 7 7 10 9 10 11 9 11 12 11 11 10 10 10 12 14 15 17 17 17 16 15 17 16 16 17 19 19 19 22 23 23 25 24 23 22 22 20 20 19 19 19 17 18 17 16 14 13 13 13 11 10 11 7 4 4 7 7 7 9 9 11
13 13 14 14 14 14 14 14 16 11 15 16 15 13 14 13 13 12 11 11 11 10 10 12 12 9 8 9 13 11 13 12 11 13 12 11 11 13 13 14 16 17 17 17 15 16 16 16 17 18 19 19 20 22 23 25 24 24 19 22 22 23 27 22 17 16 16 16 14 11 11 12 11 10 9 10 7 5 6 8 8 9 9 11 11
15 15 16 15 14 14 14 15 14 15 15 14 14 14 13 14 14 13 12 12 13 14 14 13 14 17 16 15 14 13 14 14 12 12 12 12 12 13 14 14 14 17 17 17 17 16 16 16 17 17 18 18 18 19 25 24 22 19 22 23 25 27 24 23 18 20 20 17 15 13 11 9 8 8 10 9 10 8 9 8 10 11 12 13 15
15 13 13 14 15 15 14 14 14 15 14 14 15 13 13 13 14 14 14 14 14 14 14 14 14 13 13 16 15 14 14 14 13 13 13 13 13 14 15 15 15 16 17 16 17 16 16 15 16 16 17 15 17 21 25 24 21 19 18 27 25 25 23 22 19 20 21 15 16 13 13 10 10 10 10 11 11 11 12 11 11 13 14 16 15
16 15 15 15 16 16 17 16 15 15 15 14 14 12 13 11 12 14 13 14 14 14 14 14 14 14 13 14 14 14 16 16 16 15 14 13 13 14 15 15 16 15 16 16 16 16 15 16 17 17 18 16 17 23 25 25 23 22 24 23 24 24 22 21 21 19 21 16 15 15 13 13 13 13 12 12 13 14 14 13 13 12 14 14 15
Wind_Speed
4 4 4 5 6 7 8 9 9 9 9 9 9 10 9 9 9 9 9 9 9 10 11 11 11 11 11 10 10 9 9 9 8 7 7 7 6 6 6 6 5 5 5 5 3 4 3 2 3 4 2 2 1 3 3 2 4 4 4 5 5 5 5 6 8 9 7 6 7 8 9 10 10 10 11 9 7 7 9 9 9 9 9 9 10
1 4 4 4 5 6 6 6 7 8 8 9 9 9 9 9 9 9 10 10 10 10 11 10 11 11 11 11 11 10 10 10 9 8 8 8 7 5 6 7 6 6 6 5 6 3 2 3 2 2 2 2 1 4 3 4 5 5 5 5 6 6 5 7 8 8 10 7 7 7 8 8 10 10 10 9 9 9 11 10 9 10 9 9 10
6 2 4 2 2 3 2 3 7 10 10 9 9 9 9 10 9 9 10 9 10 10 11 11 11 12 12 12 12 12 12 11 10 10 9 9 9 8 7 8 7 7 6 6 6 5 4 4 3 3 2 3 2 3 3 4 4 5 6 5 6 7 7 7 8 9 10 9 8 9 8 8 7 9 10 10 10 9 11 11 10 9 9 9 9
3 5 3 5 5 5 4 2 6 9 8 7 5 7 8 9 11 11 11 10 10 10 11 11 12 12 13 13 13 12 12 11 11 10 11 10 10 10 9 8 8 7 7 7 6 5 4 4 3 3 3 3 3 3 4 3 4 5 6 6 6 7 6 6 7 8 8 10 8 8 8 8 8 9 9 9 10 10 10 9 9 10 11 10 10
2 4 6 7 5 5 2 3 4 6 7 4 5 6 8 8 10 11 10 11 11 10 11 12 12 13 12 13 13 12 12 11 11 11 10 9 10 9 9 9 8 8 7 6 5 4 5 4 3 2 2 4 4 4 4 5 6 6 6 6 7 6 6 6 7 8 9 10 10 9 9 10 9 9 9 10 10 10 10 10 10 9 9 9 9
3 3 3 4 4 5 5 6 8 9 9 8 8 8 6 5 10 11 11 11 10 11 11 12 13 14 14 14 13 12 12 11 11 11 10 9 9 9 9 8 8 8 7 6 6 5 5 4 3 3 4 3 4 4 5 6 6 6 7 7 7 7 8 9 8 9 10 10 10 10 9 9 9 8 9 9 10 10 10 10 10 10 10 9 9
4 3 3 1 3 5 5 9 8 8 8 7 7 6 6 8 10 11 10 11 12 12 12 12 12 13 13 12 12 13 12 12 12 12 11 11 10 10 9 8 8 6 6 6 5 5 5 5 4 3 4 4 4 4 4 5 5 7 7 7 7 7 8 8 9 9 10 10 10 10 10 9 10 10 9 9 10 10 10 9 9 8 8 9 9
2 2 0 1 2 2 2 2 4 5 7 7 7 6 7 7 7 10 10 12 12 12 12 12 9 9 10 10 11 12 13 12 13 12 11 11 10 10 9 8 8 7 6 6 4 4 4 4 5 5 5 5 4 3 4 6 6 7 7 7 7 8 9 9 9 9 9 10 9 9 9 9 9 9 10 9 9 9 9 9 10 8 8 7 8
2 2 1 2 1 2 2 2 3 4 5 6 7 8 9 10 11 12 11 11 9 10 10 9 2 5 5 7 9 9 12 12 11 10 8 10 9 9 10 8 8 7 6 6 5 4 4 4 5 5 2 5 5 1 3 4 6 7 7 7 8 8 9 9 9 9 9 10 10 9 9 9 9 8 9 8 8 8 8 8 9 9 9 9 10
3 2 3 3 2 3 3 3 4 5 6 6 8 8 9 10 10 10 11 11 10 10 9 3 5 4 7 11 12 10 6 4 4 5 9 9 10 10 9 8 7 6 5 5 5 5 5 5 5 5 3 6 7 9 10 10 9 8 8 7 8 8 8 9 9 9 9 10 10 10 10 10 10 9 9 9 9 9 10 10 11 10 10 11 10
2 2 3 4 4 4 5 5 4 6 6 6 7 7 8 7 7 8 8 9 9 8 6 7 6 6 12 14 11 3 4 3 9 7 9 6 9 8 8 6 6 5 5 5 5 4 5 5 6 4 8 10 11 13 12 12 12 12 12 12 10 9 9 9 9 9 10 10 10 10 10 11 11 10 10 9 9 9 9 9 9 9 10 10 10
3 3 4 4 4 5 5 5 6 6 5 7 7 8 7 7 8 8 8 8 8 8 9 9 10 12 11 14 6 3 4 6 13 12 13 13 7 7 6 5 5 4 4 4 4 4 5 4 5 5 6 8 8 6 10 14 13 13 14 14 14 15 13 10 10 10 10 11 11 11 11 11 10 9 9 9 9 9 9 9 8 9 9 10 9
4 4 5 5 5 5 5 6 6 6 6 7 6 6 7 8 8 8 9 8 7 9 10 10 11 10 12 13 11 6 6 7 12 13 14 13 9 4 5 5 5 5 3 3 3 4 5 5 6 6 6 4 6 9 9 7 13 17 15 15 15 15 15 18 17 13 10 12 12 13 12 12 12 11 10 11 11 11 10 10 9 10 10 11 11
5 5 5 5 6 5 6 7 7 7 6 7 7 8 8 9 8 8 7 7 9 9 9 10 9 9 9 11 7 7 8 8 12 13 13 12 8 3 3 4 2 1 3 3 4 4 5 6 6 7 7 7 7 8 8 8 7 5 7 8 9 13 18 19 19 20 17 13 12 13 12 11 12 11 12 12 12 12 12 11 10 11 11 12 12
6 6 6 6 6 6 7 7 7 7 7 7 7 8 8 8 8 8 7 7 8 9 9 9 9 8 9 5 8 7 6 9 12 12 12 10 6 2 3 3 2 3 4 4 5 6 6 6 7 7 7 7 5 4 5 8 8 8 9 10 10 11 9 9 11 12 12 12 13 14 14 14 14 14 12 9 10 9 8 10 11 12 13 14 14
7 7 7 7 7 7 7 7 7 7 7 8 8 8 8 8 8 8 7 7 7 7 7 7 8 9 5 10 9 10 7 8 11 11 10 8 4 2 3 1 2 4 4 5 6 6 6 6 7 7 6 8 4 7 6 4 7 10 11 11 11 10 10 10 11 10 12 12 12 12 11 11 11 11 10 10 11 11 11 11 11 11 12 13 13
7 7 7 7 7 7 7 8 8 8 8 8 8 8 8 8 8 7 8 7 7 7 7 7 7 5 10 10 11 10 8 7 9 9 7 6 2 3 3 3 4 5 5 6 6 7 7 7 6 5 6 8 5 9 7 2 6 9 10 11 11 11 10 10 10 12 14 16 17 18 18 17 16 15 14 12 9 9 11 13 13 10 12 14 13
8 9 9 8 8 8 8 8 8 8 8 9 8 8 7 7 7 7 8 7 8 5 2 3 4 8 9 10 10 11 9 7 8 7 7 5 2 2 3 4 5 4 5 6 6 6 7 3 4 9 9 9 7 7 8 4 8 10 11 12 13 12 11 10 9 10 12 12 13 15 17 18 18 17 15 15 14 10 11 15 13 11 15 14 15
9 9 9 8 9 9 8 9 9 9 9 9 8 8 8 8 7 7 7 5 5 6 7 8 8 7 8 9 11 11 9 7 7 7 5 3 2 2 3 3 4 5 5 6 6 6 6 6 11 9 10 5 9 6 7 5 8 10 11 12 13 14 12 13 13 13 13 13 13 11 10 12 13 13 14 15 14 12 12 13 11 13 17 17 14
9 9 9 9 8 8 8 8 9 9 9 9 9 9 7 7 7 6 2 3 5 7 8 8 9 8 9 10 8 8 8 6 6 6 4 2 3 4 3 3 4 4 5 5 6 7 7 8 8 11 4 9 6 6 5 3 6 9 10 12 14 15 12 13 12 12 13 13 13 13 14 14 14 13 13 13 12 14 14 13 14 14 17 18 17
10 10 9 9 9 9 9 9 9 9 9 9 8 9 8 8 6 6 6 5 6 8 9 9 9 9 8 8 9 8 6 7 6 8 5 3 2 2 2 3 4 4 5 6 7 7 7 6 3 12 11 7 6 3 4 4 4 8 9 12 14 14 13 12 15 17 16 15 14 14 13 13 13 13 13 13 13 12 12 13 13 13 14 15 15
9 10 10 11 10 10 10 9 9 8 9 9 10 10 9 6 5 7 6 6 8 10 10 9 9 9 8 8 8 8 8 8 7 7 6 6 5 3 3 2 5 5 6 7 7 6 7 6 2 8 6 3 1 4 6 7 8 9 12 14 15 15 14 15 15 14 14 13 13 13 12 11 11 12 12 12 12 12 13 13 12 13 14 14 14
10 11 11 11 10 10 10 11 10 9 9 11 10 9 8 4 6 7 8 9 10 11 10 10 10 9 8 7 6 7 7 6 9 7 8 7 7 5 3 4 3 4 5 7 7 7 7 6 5 8 15 14 14 14 15 16 13 11 12 12 13 14 13 12 14 14 13 13 13 12 12 12 12 12 12 12 12 12 12 12 13 14 13 13 14
11 10 10 10 10 11 11 11 10 10 11 10 9 7 5 6 6 6 9 10 10 10 9 9 9 9 8 6 6 6 6 5 7 10 8 10 9 8 7 5 4 4 5 6 6 6 6 6 8 12 13 13 13 12 12 13 12 15 16 16 17 15 10 12 12 13 13 13 12 12 12 12 12 13 12 12 12 12 12 12 13 13 14 15 15
11 11 11 11 11 11 11 11 11 10 10 9 7 6 8 7 7 7 9 9 10 9 9 8 8 7 7 7 7 7 7 7 6 9 13 11 11 10 9 10 10 9 6 6 7 7 8 8 9 9 9 11 14 14 14 15 17 18 17 17 14 9 10 11 11 11 11 11 12 12 12 12 12 12 12 13 13 12 12 11 12 13 13 14 14
11 11 11 11 11 12 12 11 11 10 7 6 5 6 9 8 9 9 9 8 9 9 9 9 9 9 8 8 8 7 8 7 7 7 8 9 9 11 12 13 11 11 12 9 11 14 15 15 15 14 13 12 9 8 10 11 12 14 14 14 10 9 9 10 10 11 12 12 12 12 12 11 11 11 12 11 12 12 11 11 11 12 12 12 13
12 12 12 11 12 12 12 10 7 5 5 2 5 6 7 8 9 9 9 10 10 9 9 9 10 9 9 9 8 7 6 4 3 2 2 1 1 4 8 7 11 12 9 6 6 6 8 8 9 12 14 17 17 16 15 14 11 10 8 8 8 9 9 10 11 11 11 12 12 12 12 11 11 11 11 11 12 12 11 11 12 11 10 11 12
13 13 13 12 11 11 9 4 2 5 4 4 6 6 6 7 6 5 6 5 8 8 8 9 9 8 8 8 8 7 6 5 4 3 4 4 3 4 5 6 6 7 7 8 9 9 9 8 9 7 7 7 7 7 8 9 10 10 10 10 10 11 12 13 13 12 13 13 13 12 10 9 10 11 11 12 12 11 11 11 11 11 9 9 9
12 13 11 9 8 3 1 2 4 5 6 6 5 4 5 7 7 6 4 3 5 7 9 9 8 8 8 7 7 6 6 5 4 5 4 4 3 4 5 6 6 6 7 7 9 8 7 7 6 8 7 7 7 8 9 9 8 9 11 11 10 10 10 10 10 11 11 10 9 8 6 9 11 9 10 12 11 10 9 10 10 11 10 10 9
10 9 7 6 5 3 4 4 6 7 7 8 8 9 15 16 9 6 4 13 16 14 9 6 7 7 8 7 6 5 4 5 6 4 2 1 1 2 3 4 4 6 8 11 8 6 6 7 7 8 8 8 8 8 9 8 9 10 9 10 10 11 11 11 11 11 9 8 8 8 9 8 8 9 10 10 10 8 9 9 9 7 8 9 10
6 5 3 5 5 5 6 7 8 8 9 9 9 8 8 10 16 16 14 14 14 15 15 15 14 11 8 7 9 14 12 8 6 4 2 2 2 4 5 7 6 8 9 5 5 4 6 8 8 8 8 8 9 9 9 9 9 10 9 10 9 10 8 10 9 7 7 8 7 8 8 8 8 8 9 10 10 9 9 8 9 9 9 9 10
4 4 5 5 4 5 7 8 9 10 10 9 8 8 8 10 9 14 15 14 14 14 13 14 13 12 11 9 7 6 5 4 5 3 2 2 6 7 8 8 10 9 10 4 5 7 7 9 9 9 9 9 9 9 9 8 9 9 10 10 10 10 9 9 8 9 8 9 10 9 10 9 10 9 9 9 9 10 10 9 9 10 10 10 11
5 6 6 5 4 5 6 6 7 8 10 10 8 9 8 8 7 6 7 11 13 12 12 11 10 10 9 7 6 7 6 6 5 2 4 6 7 10 11 10 10 11 6 5 5 7 9 8 9 9 9 9 9 9 9 10 10 9 9 10 11 10 9 10 9 10 8 9 10 11 10 10 9 9 9 9 9 11 10 10 11 10 10 9 11
8 6 7 7 6 5 6 6 6 7 7 7 7 7 7 7 7 7 6 4 5 6 7 7 7 9 7 7 8 8 7 6 4 4 6 8 10 11 9 6 9 10 8 4 4 7 8 9 9 10 10 9 9 8 8 8 8 10 10 11 12 12 13 12 11 9 10 10 10 10 9 10 9 10 10 9 10 10 11 10 9 10 10 11 11
7 6 6 4 6 6 6 7 8 9 8 7 7 7 7 7 7 7 7 5 4 4 4 3 2 3 2 4 4 4 4 3 1 5 8 11 13 10 8 7 5 1 4 4 8 9 8 9 9 9 10 9 9 9 9 10 10 10 11 11 11 10 9 8 9 9 9 10 10 9 9 10 10 9 11 12 11 11 10 9 10 10 11 10 10
5 5 3 2 5 4 5 6 7 7 7 7 7 6 6 7 7 6 6 6 5 6 4 4 4 6 3 1 6 5 3 4 5 7 11 12 11 6 6 6 6 7 7 7 8 9 9 9 10 10 10 9 9 9 9 10 9 10 11 11 12 10 10 10 11 9 9 9 10 11 11 10 10 10 11 10 12 12 11 11 10 9 9 9 8
4 3 5 6 6 5 5 5 6 7 6 6 8 7 7 6 6 6 6 5 5 4 5 6 6 4 3 5 5 5 7 7 9 10 12 14 10 4 6 6 5 7 8 7 8 8 8 8 8 9 9 9 9 9 10 10 10 12 11 12 10 11 11 11 11 10 11 10 10 10 11 10 9 9 8 10 9 9 10 11 10 10 9 10 9
5 4 4 3 5 6 6 6 4 1 4 6 8 8 7 7 7 7 6 6 5 5 5 8 6 4 4 4 9 6 7 11 9 7 9 11 9 5 3 5 6 6 7 8 8 8 8 9 8 8 9 9 10 10 10 9 9 11 12 12 12 12 13 13 12 10 9 10 11 9 9 9 9 8 8 9 9 9 8 8 8 9 8 9 8
4 3 3 2 2 4 4 5 4 5 6 6 7 6 6 4 2 2 2 3 1 0 0 4 3 1 3 2 2 6 9 5 6 8 8 4 2 3 4 5 5 6 7 7 8 8 8 8 9 8 8 8 9 10 10 11 11 12 12 12 13 12 12 12 12 11 10 10 9 9 9 10 10 9 8 9 9 7 7 6 6 7 8 8 8
3 3 4 4 4 4 7 4 2 1 4 5 5 4 4 2 3 2 0 0 1 1 1 1 4 6 4 4 4 4 3 6 5 4 4 3 2 3 4 4 5 5 6 7 7 8 8 8 9 9 8 8 10 11 11 12 12 12 12 13 13 13 13 12 10 12 12 10 11 11 11 10 9 8 8 8 7 6 6 6 6 5 5 4 4
1 1 4 3 2 4 4 5 5 4 4 4 4 4 2 1 2 1 0 0 0 0 0 5 8 6 5 4 3 3 2 4 3 3 3 3 3 3 3 4 5 5 6 7 7 7 8 8 9 9 9 9 9 10 11 11 12 11 12 12 13 13 13 12 11 10 9 11 11 11 9 8 8 9 9 8 6 6 5 5 5 5 5 5 5
4 4 3 4 3 5 5 6 5 5 7 5 2 2 3 3 3 3 3 2 2 2 1 3 6 6 5 1 2 2 2 3 3 3 2 2 3 3 4 4 4 5 6 6 7 7 8 8 8 9 9 9 10 10 11 12 11 11 11 12 14 14 13 12 11 11 11 11 11 10 9 8 9 9 9 9 6 5 5 5 5 5 5 5 5
4 4 4 4 5 6 7 6 6 5 1 3 3 5 5 4 4 4 3 5 4 4 3 2 3 4 4 3 1 5 5 2 3 2 3 3 3 4 4 4 5 5 5 6 6 7 7 8 8 8 9 9 9 10 12 12 11 10 11 13 13 13 14 13 11 10 10 11 11 10 10 9 9 7 7 7 6 5 5 5 4 4 4 4 4
5 4 4 4 3 2 3 4 4 6 5 6 6 6 5 5 5 5 4 3 3 3 3 3 2 2 1 4 3 1 2 2 2 3 3 3 3 4 4 4 5 6 6 6 6 7 7 8 8 8 8 9 9 9 11 11 10 10 11 12 12 13 13 12 12 12 11 11 11 11 9 9 9 8 7 8 5 5 5 5 5 4 4 4 4
6 5 4 4 4 4 5 5 5 4 5 5 3 4 6 6 5 4 3 3 4 3 3 3 3 2 3 3 2 1 2 3 3 3 3 4 4 4 4 5 5 6 6 6 6 7 7 8 8 8 9 10 9 10 12 12 11 11 9 10 11 11 12 12 12 12 11 10 9 9 9 8 8 7 6 7 5 3 4 4 4 5 4 4 5
7 6 5 5 5 5 5 5 5 5 3 3 3 3 5 6 6 6 5 4 4 3 2 2 2 2 2 2 3 6 4 3 3 4 5 4 4 4 5 5 6 6 6 6 7 7 7 7 7 9 9 9 8 10 12 11 11 9 10 10 10 11 11 11 10 10 9 8 8 8 9 8 7 5 6 6 5 2 2 2 2 2 3 4 4
7 6 5 5 6 6 6 6 5 5 5 4 5 4 4 5 5 6 6 5 4 3 2 1 2 2 2 3 3 2 3 4 4 4 4 4 4 4 5 6 7 6 6 7 7 7 7 7 7 8 8 8 8 8 10 11 11 11 9 10 9 10 9 9 9 8 8 9 8 6 7 7 6 5 5 5 3 1 1 2 2 4 4 4 4
5 5 5 5 5 5 5 6 6 6 6 6 6 5 5 5 5 4 4 3 3 3 3 3 2 1 2 2 4 4 5 3 3 5 4 4 4 5 6 6 7 7 7 7 7 7 7 7 7 8 7 7 7 9 12 13 12 10 7 8 10 12 16 15 9 8 7 8 7 6 6 6 5 5 4 5 3 1 1 2 2 2 3 5 5
6 6 6 6 6 6 6 6 6 6 5 6 6 5 5 5 5 4 4 4 5 5 5 5 5 6 5 4 4 4 5 5 4 4 4 4 5 5 6 6 7 7 7 7 7 7 7 7 8 7 7 6 7 8 10 11 11 9 10 11 14 21 19 18 12 9 13 9 7 7 6 5 4 4 5 4 4 3 3 3 3 4 4 6 7
6 6 6 6 6 5 5 5 6 6 5 5 5 5 5 5 5 5 5 5 5 4 4 4 4 5 5 6 6 6 5 5 5 5 5 5 5 6 6 7 7 7 7 7 7 7 7 7 7 8 7 6 6 8 10 10 10 10 9 13 19 19 18 17 15 16 12 7 8 6 6 5 6 5 5 5 5 5 5 5 5 5 6 7 7
6 6 6 6 6 7 7 6 6 5 6 5 5 3 5 4 3 4 5 5 4 4 4 4 4 5 5 5 6 6 6 6 6 6 5 5 5 6 6 7 7 7 7 7 7 7 7 7 7 8 8 6 7 9 10 12 10 11 14 17 19 18 17 16 12 14 17 12 7 7 6 7 7 6 6 5 6 7 7 7 6 6 7 7 7
Wind_Direction
181 184 191 207 211 212 207 214 214 210 213 212 218 219 219 217 215 208 202 202 202 197 199 202 200 200 202 202 201 200 202 201 198 204 202 202 201 209 173 206 205 195 183 174 195 193 193 198 183 174 172 263 319 305 285 301 297 288 277 272 273 270 269 274 275 279 275 265 278 286 296 302 290 286 284 282 281 278 269 271 281 280 277 271 275
202 203 203 219 226 225 232 247 240 231 226 224 224 231 227 224 222 217 217 209 209 209 206 206 207 204 209 207 206 205 204 204 201 203 204 202 201 202 187 205 212 201 183 202 185 194 172 242 210 144 211 263 259 282 320 325 307 290 300 309 305 302 297 293 289 289 287 286 276 278 276 275 279 281 281 277 276 277 277 276 272 266 264 270 268
156 87 27 356 251 265 278 264 270 252 235 232 229 232 236 232 226 227 222 217 214 216 215 214 213 213 211 214 210 209 208 206 201 203 205 203 199 194 199 204 207 198 194 210 202 187 191 202 220 193 207 234 248 270 281 280 294 301 301 296 294 296 293 290 292 288 289 288 291 285 278 272 267 274 272 273 278 282 284 283 280 278 274 266 265
147 127 154 219 222 226 215 243 259 259 253 235 248 266 267 256 240 228 223 222 220 216 219 220 217 219 221 217 217 214 212 210 205 205 209 206 203 198 199 202 201 201 203 205 210 183 201 199 224 232 226 248 273 301 289 289 289 297 295 289 281 280 280 275 267 275 280 284 281 284 286 290 286 281 279 276 272 268 266 267 264 272 280 275 271
142 162 191 202 225 242 173 141 245 267 276 266 214 221 249 272 264 239 229 225 224 222 218 219 224 221 222 225 223 220 218 214 212 208 211 210 206 206 201 203 199 201 202 202 194 191 201 209 238 256 276 283 284 287 310 315 303 296 294 294 286 282 279 275 276 275 280 282 285 282 285 281 280 280 277 277 273 267 265 266 267 265 265 275 284
86 129 185 234 247 253 219 203 222 237 247 234 221 220 212 213 264 272 249 237 230 230 228 222 223 222 218 223 227 227 227 222 223 217 220 212 209 209 203 203 199 199 198 198 194 209 213 221 226 229 250 266 285 296 299 299 300 295 295 297 300 301 292 288 281 275 272 272 275 279 272 276 279 275 279 277 278 279 277 275 276 277 277 274 272
64 54 33 334 181 188 213 246 244 236 235 250 258 237 236 228 226 238 240 238 234 232 233 235 232 230 222 220 224 227 223 223 228 231 233 232 217 212 199 200 191 198 195 199 205 199 205 215 225 235 249 260 277 283 290 297 287 287 285 284 285 287 286 284 284 283 279 278 276 276 279 274 271 276 272 272 274 275 278 278 271 270 263 265 265
31 36 80 174 229 255 272 230 196 222 237 237 237 233 236 239 247 252 236 239 240 238 234 233 233 233 233 234 233 229 228 223 228 227 226 233 225 225 210 194 191 191 190 201 203 209 218 235 239 246 250 256 261 269 311 298 301 297 293 292 290 288 287 288 285 282 279 277 276 280 276 280 280 275 278 275 273 268 265 269 275 276 274 267 271
360 341 334 268 305 304 260 245 254 255 239 229 246 242 238 242 237 238 242 239 239 246 242 238 10 312 296 289 266 266 247 229 224 222 216 219 209 223 221 203 194 187 188 202 213 220 236 242 249 247 265 66 66 21 275 281 285 281 281 283 279 280 280 280 283 282 280 280 281 279 279 276 272 275 274 273 272 279 290 295 289 291 291 287 279
343 335 301 308 291 275 266 257 252 247 250 247 236 231 227 228 234 240 245 248 248 243 240 180 144 226 284 257 241 231 259 295 2 210 215 211 205 213 217 212 190 184 190 200 203 225 240 255 251 247 203 202 221 227 237 239 228 244 269 279 283 283 280 280 278 277 281 282 280 284 283 282 282 283 284 284 289 291 288 283 279 280 279 276 272
324 300 301 307 302 282 264 253 249 256 256 255 254 250 247 239 231 239 241 241 238 228 214 141 171 193 235 250 244 156 109 120 85 74 102 144 189 200 204 196 182 187 189 209 231 235 243 254 269 211 189 212 222 227 232 223 226 233 238 253 271 278 283 278 272 276 280 280 281 280 280 282 283 286 285 287 282 280 280 282 280 280 278 281 282
294 291 284 286 279 284 292 289 276 270 262 259 261 259 256 248 241 232 232 231 228 224 231 201 194 209 220 235 225 117 107 129 123 115 96 86 105 174 185 179 178 193 205 220 229 245 259 273 275 279 277 274 286 251 222 221 226 225 228 233 233 238 241 251 265 272 271 273 273 271 275 274 280 281 283 285 288 288 285 283 280 282 284 280 281
296 293 296 291 285 278 277 274 273 272 271 269 268 268 264 263 254 244 233 231 226 231 239 238 237 223 222 224 216 142 122 122 114 107 99 93 82 125 169 179 184 203 212 221 253 272 275 279 280 276 279 244 226 250 268 251 212 220 226 226 231 231 232 234 242 251 263 266 270 272 270 280 282 283 291 300 311 299 293 283 282 280 275 275 273
281 287 283 277 280 283 278 277 275 270 271 270 267 265 264 261 260 255 251 228 225 231 230 235 237 232 206 215 162 131 127 121 108 102 96 88 70 16 161 150 194 242 241 246 251 261 264 266 274 278 280 281 283 279 283 280 300 267 237 234 241 228 224 232 233 234 236 248 260 268 274 275 276 284 295 307 302 294 292 289 302 297 290 282 284
300 292 285 284 284 278 275 276 279 282 281 281 280 275 270 267 261 254 248 242 232 226 229 236 233 220 204 154 124 116 97 109 105 102 99 94 77 350 146 148 216 239 243 245 251 258 262 260 262 268 275 278 293 22 301 297 299 295 289 290 286 290 283 252 228 226 231 234 246 256 267 269 270 273 277 291 303 317 321 311 306 298 296 297 291
289 289 288 289 285 281 276 273 271 268 267 267 267 265 262 259 259 260 254 249 242 231 229 234 234 223 169 121 122 112 110 100 101 102 103 105 104 169 146 174 253 251 251 252 255 258 257 261 262 267 278 280 66 83 39 319 291 289 288 285 285 283 277 269 275 287 279 272 264 266 268 283 309 304 297 295 296 298 302 302 298 295 292 283 274
284 280 275 272 274 275 275 274 273 274 272 271 269 269 269 265 261 261 256 248 249 239 229 232 228 160 122 124 118 118 121 120 112 114 115 122 171 161 163 223 238 232 235 247 254 257 254 256 257 267 281 288 109 119 117 219 280 284 285 287 286 285 282 285 270 253 246 250 259 268 272 271 267 273 282 273 261 278 289 286 278 285 278 273 272
296 295 292 290 284 281 276 274 270 267 267 266 266 265 266 269 264 257 258 250 241 256 261 193 151 116 122 122 123 125 127 135 137 134 138 163 300 260 218 240 242 251 260 256 259 263 269 212 248 264 270 273 118 141 140 205 277 285 288 291 290 286 288 291 287 282 278 266 252 251 257 266 271 262 254 254 259 256 261 262 268 272 267 267 271
291 293 294 294 292 289 288 284 282 278 276 276 275 273 268 266 265 261 255 268 255 115 96 95 94 92 94 102 107 117 130 148 161 139 136 134 352 312 275 264 269 262 272 278 273 275 280 234 202 227 249 279 100 133 160 253 286 287 289 292 290 287 289 291 290 292 291 292 289 282 264 249 247 252 261 263 255 242 247 260 265 253 257 260 264
293 292 290 290 289 288 284 282 276 275 273 273 271 273 274 265 266 267 199 109 85 109 110 100 97 96 105 115 124 125 134 143 155 154 150 104 21 344 321 299 286 288 285 289 303 294 285 284 256 207 215 54 51 35 7 1 286 290 291 287 288 286 290 290 296 306 304 298 293 288 286 290 291 288 281 269 253 243 246 255 257 251 254 256 255
290 290 289 287 285 284 284 286 289 285 282 278 278 271 267 264 250 212 169 153 123 109 103 104 109 116 122 127 128 135 140 152 165 179 171 134 60 319 316 303 305 313 309 303 288 289 287 292 18 74 77 56 38 336 310 284 281 292 290 284 281 298 317 300 289 287 284 284 282 280 277 276 274 273 269 265 263 264 254 235 234 249 257 256 255
285 286 288 289 289 290 289 288 285 284 282 284 276 274 270 252 195 190 177 147 130 118 117 120 126 127 131 135 136 141 151 154 163 179 166 172 185 229 269 348 29 316 300 285 286 287 296 296 319 120 120 141 287 272 272 276 274 289 284 284 289 290 287 285 286 284 280 277 275 275 276 274 272 268 263 260 261 258 256 256 244 233 243 248 255
286 283 282 283 287 288 289 285 280 273 265 262 267 268 260 175 163 157 142 137 131 130 132 136 133 131 128 129 129 141 151 145 149 163 180 185 191 210 225 285 87 279 289 295 294 294 292 301 287 24 347 337 330 324 316 305 299 289 290 283 280 277 274 277 280 278 274 270 270 269 268 266 263 262 260 262 260 257 257 256 255 253 247 245 246
276 278 281 283 284 284 282 282 276 273 272 273 266 256 191 145 154 149 144 136 135 137 138 134 132 133 136 138 149 156 158 158 148 153 178 192 189 202 194 223 247 289 311 294 291 291 293 299 318 327 310 307 294 285 285 284 278 276 273 271 269 270 270 276 274 272 269 268 267 265 263 261 261 262 263 264 264 262 261 260 260 259 257 256 254
283 283 283 282 283 285 286 288 290 287 286 280 257 185 173 156 138 136 134 140 141 140 137 136 138 147 150 157 162 166 163 163 160 168 175 189 193 197 205 213 216 218 249 291 281 285 293 293 300 309 309 294 283 275 268 258 253 255 259 262 265 268 275 279 275 270 267 265 263 263 262 262 262 266 272 274 276 278 278 273 264 261 261 260 259
279 283 287 290 293 293 293 297 289 285 283 259 233 169 178 163 145 147 141 137 137 136 145 156 163 164 160 161 152 142 150 157 165 175 190 195 200 200 212 212 214 211 225 264 285 291 292 295 291 280 273 266 272 290 304 305 300 292 286 278 270 265 267 275 272 269 267 266 263 262 264 266 266 265 265 265 267 265 266 265 262 259 256 256 258
283 286 285 287 289 290 288 280 273 267 247 225 175 175 158 152 147 149 149 149 154 163 165 159 152 150 144 137 133 138 137 119 111 91 72 12 309 187 209 220 215 225 233 253 268 292 313 320 311 296 278 275 271 267 266 270 272 269 270 276 282 279 278 276 278 275 267 266 264 262 266 267 272 272 266 265 262 261 258 257 258 258 258 257 255
283 282 285 286 285 283 277 66 173 220 185 126 142 153 145 139 142 145 156 155 151 141 142 144 141 140 134 136 139 130 114 89 58 38 34 8 345 343 354 346 355 354 351 351 337 322 316 310 291 286 300 299 301 318 316 314 311 312 305 302 298 293 286 278 271 275 274 275 276 279 278 274 271 270 269 265 263 262 260 259 258 256 253 255 255
281 280 284 287 282 307 281 183 207 157 142 94 73 85 143 142 127 114 105 144 138 138 139 128 129 130 126 120 118 105 98 94 76 48 47 36 353 343 350 1 354 344 8 351 320 320 323 314 312 311 315 312 310 309 313 312 309 307 304 300 300 298 296 296 295 292 291 292 292 289 284 277 272 271 273 272 268 266 264 262 256 255 254 249 251
282 276 268 258 244 181 175 165 134 131 116 109 100 77 55 53 51 84 85 69 68 58 60 88 90 86 76 54 42 98 108 93 104 107 100 79 32 277 284 307 293 290 303 307 296 295 320 322 322 322 318 317 315 311 310 312 310 308 305 304 299 295 295 293 290 288 289 288 285 283 280 278 274 271 270 268 266 261 259 257 260 251 245 240 245
270 260 229 203 173 153 143 141 144 129 120 119 100 83 86 67 54 56 66 70 70 69 71 70 70 73 87 100 72 68 85 105 120 117 106 228 260 292 274 259 261 267 276 298 294 317 315 324 327 324 322 318 314 310 309 308 308 306 305 305 300 294 291 290 289 290 288 284 282 278 277 274 272 268 263 261 263 262 258 252 253 250 246 243 242
219 188 154 143 138 157 149 143 137 136 129 111 109 114 98 95 70 42 45 55 60 68 73 74 73 72 74 90 118 117 114 132 121 132 219 265 255 251 258 254 256 255 262 259 285 277 322 336 329 327 322 314 309 307 307 306 307 305 304 303 301 300 297 293 293 294 293 289 284 281 278 275 270 269 265 262 259 257 252 251 244 245 242 240 241
141 130 123 129 110 76 79 111 121 123 120 118 114 109 109 107 100 99 53 45 55 58 59 69 81 85 84 70 66 105 121 135 141 151 247 261 260 254 252 256 249 249 277 270 285 333 340 334 330 320 317 312 312 311 310 307 306 305 304 301 299 298 294 291 293 290 281 277 275 273 273 272 271 268 263 257 253 254 251 247 243 240 240 233 237
104 98 104 101 101 103 108 114 114 113 111 111 113 111 109 107 112 107 107 107 79 60 58 55 86 101 82 78 96 101 100 117 137 235 259 264 262 263 264 277 281 254 234 285 311 325 337 330 323 321 317 316 312 310 309 310 309 307 304 301 299 298 297 296 294 287 284 280 276 274 268 266 264 265 261 257 251 250 249 245 238 236 233 236 240
100 71 53 93 134 144 138 132 125 119 118 121 118 116 111 118 124 136 145 148 151 155 160 158 189 279 133 136 125 121 132 149 139 244 263 264 265 282 302 266 265 252 198 272 334 337 329 330 325 324 321 318 321 318 314 312 310 306 303 302 299 298 295 291 288 286 283 283 280 275 270 270 266 259 263 264 265 261 254 249 247 238 237 233 233
98 111 117 146 128 122 119 122 126 124 130 132 137 127 136 142 157 152 153 154 154 163 161 163 170 172 199 188 150 176 186 204 220 251 254 259 271 314 299 347 358 345 346 347 335 338 334 327 329 324 324 322 319 316 314 313 309 305 304 304 303 300 300 298 294 289 284 281 279 277 275 270 266 264 263 255 252 252 251 251 247 243 233 231 226
146 157 151 135 125 111 119 125 138 149 149 143 137 141 152 165 170 162 162 168 166 166 164 148 151 150 188 213 183 205 215 220 218 233 255 260 271 280 278 351 355 346 336 343 340 337 331 329 326 327 323 323 319 319 318 313 312 308 306 304 302 299 297 297 294 290 287 285 283 283 281 274 269 263 258 256 252 247 244 240 240 236 229 223 220
141 147 131 138 146 151 153 172 157 324 183 171 152 153 171 181 187 180 179 173 182 181 164 158 172 183 187 193 181 202 216 218 220 236 260 276 266 244 322 355 350 344 338 335 340 332 332 331 330 327 326 320 319 317 315 313 312 311 309 306 305 303 298 295 289 288 288 288 289 282 277 278 278 275 269 262 255 249 241 236 233 234 226 216 212
141 86 124 110 270 184 172 164 142 164 162 166 144 146 140 139 143 155 169 146 144 227 243 144 198 114 90 106 165 209 222 228 202 219 217 236 349 12 340 344 350 342 338 334 335 335 331 331 330 327 322 321 317 318 316 314 313 311 310 308 308 308 306 306 304 302 297 294 291 289 289 289 288 284 275 272 265 254 247 237 224 224 226 218 212
143 165 145 159 187 192 177 160 153 215 165 155 146 145 148 168 156 167 182 169 129 197 193 205 64 61 42 33 17 355 326 326 343 1 11 7 356 1 346 342 349 341 337 336 334 334 332 331 332 327 321 319 321 317 317 314 314 311 310 312 312 311 309 306 303 302 300 297 296 296 293 291 290 287 284 274 263 254 247 239 232 215 217 214 206
175 181 133 186 262 182 190 185 179 203 185 183 160 180 143 111 65 22 40 343 193 122 355 70 76 69 57 53 55 4 325 305 331 358 3 6 353 342 347 347 338 339 337 335 337 335 333 332 329 328 324 323 324 321 318 317 314 312 311 311 312 311 309 307 301 296 294 296 296 295 292 289 289 293 293 284 259 250 248 241 233 220 215 214 217
100 123 146 160 184 205 194 201 198 215 240 218 197 108 88 85 65 61 44 35 45 37 38 73 87 90 90 82 5 319 287 295 3 342 355 360 356 348 351 340 337 338 339 338 337 334 333 334 329 327 327 326 324 323 322 319 318 316 316 314 314 312 309 307 303 301 299 299 299 296 292 291 294 292 285 279 264 249 241 239 230 224 213 212 211
104 118 133 159 176 209 195 183 207 212 207 102 87 78 71 82 99 92 78 57 50 50 55 58 69 94 111 115 47 249 264 322 11 332 23 360 357 350 340 337 339 340 335 333 332 337 338 332 330 329 329 328 324 326 326 323 320 318 316 316 312 310 310 306 306 304 304 303 302 299 295 294 296 293 294 289 263 251 236 230 225 221 215 207 205
88 78 78 94 103 134 157 148 91 68 64 61 58 59 74 82 73 75 77 70 60 61 62 54 46 20 35 170 197 295 13 11 359 2 4 354 348 343 336 338 341 338 330 327 331 343 335 331 332 330 328 325 331 329 327 326 320 316 313 314 313 310 308 308 307 306 306 303 298 298 299 297 296 295 292 290 271 250 236 221 212 212 204 202 198
91 72 70 93 99 99 90 91 96 94 102 103 90 79 69 70 68 62 60 68 65 63 61 55 39 25 16 19 11 15 13 8 353 3 358 347 337 340 341 342 340 339 329 318 331 336 331 333 331 329 329 329 332 331 332 330 325 322 316 312 311 310 311 308 306 302 298 292 296 302 303 300 299 299 295 300 288 244 240 224 216 202 197 194 182
69 67 60 67 82 90 92 91 86 83 76 75 83 81 75 73 70 61 58 60 53 55 66 64 72 54 18 31 8 6 11 350 348 354 349 344 339 336 337 343 345 333 326 323 324 328 333 336 331 330 327 331 330 332 331 328 326 322 318 319 314 312 310 307 302 295 295 301 301 302 305 307 305 300 302 302 301 274 217 202 187 181 169 164 163
71 80 82 77 69 62 56 61 67 76 79 71 70 74 72 72 79 85 72 61 59 59 60 55 65 63 35 33 17 345 360 352 353 343 346 339 337 333 344 345 340 335 331 325 319 327 338 337 331 325 325 332 333 328 324 328 328 327 325 325 319 318 310 309 303 299 305 308 306 306 307 308 311 314 315 316 314 312 189 185 182 170 163 151 142
65 62 66 78 87 88 92 94 93 83 77 70 64 64 71 80 82 76 86 103 97 75 71 59 46 61 72 59 48 356 14 351 348 349 344 341 340 340 341 339 341 337 329 320 322 333 335 333 332 325 329 335 332 324 331 334 332 325 317 324 327 329 327 326 316 321 319 316 315 315 310 313 317 323 330 335 343 8 98 111 122 123 117 115 115
67 74 76 71 75 79 82 81 77 77 81 85 78 73 67 65 64 74 80 67 56 48 37 29 30 27 24 44 26 6 25 1 357 348 348 344 342 341 342 341 339 334 330 327 325 331 333 335 329 328 332 337 338 328 333 334 331 323 329 336 334 333 335 336 333 337 336 333 329 325 326 325 339 351 358 5 11 21 56 77 86 86 94 99 103
58 65 79 85 87 86 78 77 77 78 71 76 77 75 72 71 63 55 56 57 57 56 55 50 41 32 17 22 19 7 7 359 357 351 347 343 345 343 339 340 337 336 334 328 323 331 335 336 332 336 337 344 338 334 342 340 338 335 336 337 336 340 342 343 341 345 350 344 340 331 339 355 5 9 12 20 27 32 43 49 73 86 88 95 100
76 63 64 70 70 70 71 75 74 71 68 70 70 67 63 64 65 63 60 57 56 51 49 42 39 35 29 25 21 14 8 2 357 350 344 344 345 339 340 338 336 335 330 326 328 332 334 337 336 339 341 348 341 347 348 346 346 338 336 339 344 345 348 350 351 350 351 355 353 345 355 13 23 24 27 33 50 49 53 52 54 70 85 88 96